Zurück zum Katalog

STARLINK-5625

AktivKommunikationVLEO
NORAD 55368·PAYLOAD·🇺🇸 United States

Gestartet Jan 26, 2023 von Cape Canaveral Space Force Station

Loading…

Nächste Überflüge (nächste 24 Stunden)

TLE

AktuellSource: CelesTrak SupGP

Epoche: Sep 14, 2026, 20:48 UTC

1 55368C 23013AP  26257.86715278 -.00053648  00000+0 -19425-2 0  2579
2 55368  43.0034 300.1239 0001709 292.8175 221.9039 15.27614899    11

Verfolge STARLINK-5625 in Echtzeit mit AllMySat

Download on the App Store